Morgantown, WV

9:50 AM EDT on May 28, 2017 (GMT -0400)
Morgantown Municipal-Hart

Weather History for KMGW - May, 2013

Change the Weather History Date:

Friday, May 31, 2013

  Actual Average Record
Temperature  
Mean Temperature 77 °F 65 °F  
Max Temperature 88 °F 76 °F 93 °F (2011)
Min Temperature 65 °F 55 °F 37 °F (2001)
Degree Days  
Heating Degree Days 0 3  
Month to date heating degree days 137 170  
Since 1 July heating degree days 4899 5153  
Cooling Degree Days 12 3  
Month to date cooling degree days 109 51  
Year to date cooling degree days 146 67  
Growing Degree Days 25 (Base 50)    
Moisture  
Dew Point 61 °F    
Average Humidity 64    
Maximum Humidity 87    
Minimum Humidity 40    
Precipitation  
Precipitation T in 0.16 in 1.72 in (1985)
Month to date precipitation 3.87 4.61  
Year to date precipitation 12.64 17.19  
Sea Level Pressure  
Sea Level Pressure 30.10 in    
Wind  
Wind Speed 4 mph (SSW)    
Max Wind Speed 13 mph    
Max Gust Speed 20 mph    
Visibility 10 miles    
Events      
T = Trace of Precipitation, MM = Missing Value Source: NWS Daily Summary

Daily Weather History Graph

Daily Weather History Graph

Search for Another Location

Airport or City:

Trip Planner

Search our weather history database for the weather conditions in past years. The results will help you decide how hot, cold, wet, or windy it might be!

Date:

Astronomy

May. 31, 2013 Rise Set
Actual Time 5:54 AM EDT 8:40 PM EDT
Civil Twilight 5:22 AM EDT 9:12 PM EDT
Nautical Twilight 4:42 AM EDT 9:52 PM EDT
Astronomical Twilight 3:57 AM EDT 10:38 PM EDT
Moon 1:15 AM EDT (5/31) 1:06 PM EDT (5/31)
Length of Visible Light 15h 50m
Length of Day
14h 46m
Waning Gibbous, 51% of the Moon is Illuminated
May 31
Waning Gibbous
May 31
Last Quarter
Jun 8
New
Jun 16
First Quarter
Jun 23
Full

Hourly Weather History & Observations

Time (EDT) Temp. Heat Index Dew Point Humidity Pressure Visibility Wind Dir Wind Speed Gust Speed Precip Events Conditions
12:53 AM 68.0 °F - 63.0 °F 84% 30.13 in 10.0 mi Calm Calm - N/A   Clear
1:53 AM 68.0 °F - 62.1 °F 81% 30.14 in 10.0 mi SSW 3.5 mph - N/A   Clear
2:53 AM 66.9 °F - 62.1 °F 84% 30.14 in 10.0 mi South 3.5 mph - N/A   Clear
3:53 AM 68.0 °F - 61.0 °F 78% 30.14 in 10.0 mi Calm Calm - N/A   Clear
4:53 AM 68.0 °F - 60.1 °F 76% 30.13 in 10.0 mi SSE 3.5 mph - N/A   Clear
5:53 AM 66.9 °F - 59.0 °F 76% 30.14 in 10.0 mi Calm Calm - N/A   Clear
6:53 AM 70.0 °F - 57.9 °F 65% 30.14 in 10.0 mi Calm Calm - N/A   Clear
7:53 AM 72.0 °F - 57.9 °F 61% 30.15 in 10.0 mi South 3.5 mph - N/A   Clear
8:53 AM 75.0 °F - 59.0 °F 57% 30.14 in 10.0 mi South 5.8 mph - N/A   Clear
9:53 AM 77.0 °F - 57.0 °F 50% 30.15 in 10.0 mi SW 6.9 mph - N/A   Clear
10:53 AM 79.0 °F - 59.0 °F 50% 30.15 in 10.0 mi SW 6.9 mph - N/A   Clear
11:53 AM 81.0 °F 81.9 °F 62.1 °F 52% 30.14 in 10.0 mi SSE 6.9 mph - N/A   Clear
12:53 PM 82.9 °F 84.0 °F 63.0 °F 51% 30.13 in 10.0 mi Variable 4.6 mph - N/A   Clear
1:53 PM 84.0 °F 84.4 °F 61.0 °F 46% 30.11 in 10.0 mi Variable 6.9 mph - N/A   Clear
2:53 PM 84.9 °F 85.0 °F 61.0 °F 44% 30.08 in 10.0 mi South 8.1 mph - N/A   Clear
6:53 PM 84.9 °F 84.2 °F 57.9 °F 40% 30.01 in 10.0 mi Variable 4.6 mph - N/A   Clear
7:53 PM 82.9 °F 82.8 °F 59.0 °F 44% 30.02 in 10.0 mi Calm Calm - N/A   Clear
8:53 PM 78.1 °F - 62.1 °F 58% 30.01 in 10.0 mi Calm Calm - N/A   Clear
9:53 PM 75.0 °F - 62.1 °F 64% 30.02 in 10.0 mi Calm Calm - N/A   Clear
10:53 PM 72.0 °F - 63.0 °F 73% 30.02 in 10.0 mi Calm Calm - N/A   Clear
11:53 PM 72.0 °F - 62.1 °F 71% 30.02 in 10.0 mi SSW 3.5 mph - N/A   Scattered Clouds